ノヴィチョーノク-ギェルケ彗星

408P/Novichonok-Gerke (2012)

English version
Home page
Updated on May 26, 2021

---------------------------------------------------------------------

・ プロフィール

符号 408P/2011 R3
発見日 2011年9月7日
発見光度 18.9等
発見者 Artyom O. Novichonok and Vladimir V. Gerke (TAU station of the Ka-Dar Observatory, near Nizhniy Arkhyz, Russia)

・ 写真集

・ 軌道要素

                    Epoch = 2012 Mar. 14.0 TT
     T = 2012 Apr.  3.09046 TT        Peri. = 225.18966
     e = 0.2670672                    Node  = 190.62115 2000.0
     q = 3.5577279 AU                 Incl. =  19.24408
       a =  4.8540980 AU   n = 0.09215974   P =  10.69 years

・ 光度変化

        m1 = 10.0 + 5 logΔ + 10.0 log r

---------------------------------------------------------------------

軌道要素はCBET 4833に掲載されたものです。
光度グラフはComet for Windowsで作成したものです。

---------------------------------------------------------------------

Copyright(C) Seiichi Yoshida (comet@aerith.net). All rights reserved.